Starlink 3936

operational
NORAD ID: 52674 Int'l Des: 2022-053 Owner: SPXS Country: US Constellation: starlink
LEOCIRCULAR

Über Starlink 3936

Beschreibung wird geladen...

Live-Position

3D-Globus wird geladen...

Nächste Überflüge

Höhenverlauf

Altitude vs Time

uPlot chart will show altitude changes over time

Zweizeiliger Elementsatz

1 52674U 22053U 26061.62929481 .00000890 00000-0 73975-4 0 9994
2 52674 53.2168 185.8162 0001181 89.8140 270.2988 15.08842094209988
Epoch: 2. März 2026 • Age: 38 hours

Aktueller Status

Höhe 544.0 km
Geschwindigkeit 7.60 km/s
Subsatellitenpunkt 46.44°N, 132.98°W
Startdatum 18. Mai 2022
Alter 3.7 years
Typ internet

Technische Details

Klassifizierung Payload
Masse 297.00 kg
Trockenmasse 275.00 kg
Gesamtmasse 297.00 kg
Länge 0.20 m
Durchmesser 2.80 m
Spannweite 9.00 m
Form Box + pan
Hersteller SPXS
Bus-Typ Starlink
Phasenstatus In Orbit
Besitzer/Staat SPXS/US

Große Konstellationen

Loading constellations...